Flag for Canada Weather past 2 weeks in Selkirk, Manitoba, Canada

Now
53 °F

Cool.


Feels Like: 53 °F
Forecast: 40 / 68 °F
Wind: 2 mph from Southeast

Location: Winnipeg The Forks

Current Time: Sep 18, 2014 at 11:47:30 AM

Latest Report: Sep 18, 2014 at 11:00 AM


Visibility: N/A

Pressure: 29.95 "Hg

Humidity: 74%

Dew point: 45 °F

Location of SelkirkLocation

Historic Weather in Selkirk — Graph

°F

Selkirk temperature yesterday

Maximum temperature yesterday: 52 °F (at 12:00 AM)
Minimum temperature yesterday: 42 °F (at 11:00 PM)
Average temperature yesterday: 47 °F

Past Weeks' High & Low Weather Summary

 TemperatureHumidityPressure
High76 °F (Sep 7, 5:00 PM)99% (Sep 6, 7:00 AM)30.44 "Hg (Sep 6, 7:00 AM)
Low36 °F (Sep 18, 4:00 AM)24% (Sep 15, 4:00 PM)29.53 "Hg (Sep 8, 10:00 AM)
Average54 °F68%30.03 "Hg
* Reported Sep 3 10:00 AM — Sep 18 10:00 AM, Selkirk, Weather by CustomWeather, © 2014

Note: Actual official high and low records may vary slightly from our data, if they occured in-between our weather recording intervals... More about our weather records

Advertising

Selkirk weather history for previous 24 hours

 ConditionsComfort  
Time TempWeatherWind HumidityBarometerVisibility
10:00 AM
Sep 18
49 °FCool.2 mph80%29.97 "HgN/A
9:00 AM42 °FQuite cool.1 mph85%29.99 "HgN/A
8:00 AM38 °FChilly.3 mph87%30.00 "HgN/A
7:00 AM38 °FChilly.2 mph89%30.03 "HgN/A
6:00 AM37 °FChilly.2 mph89%30.03 "HgN/A
5:00 AM37 °FChilly.2 mph89%30.06 "HgN/A
4:00 AM36 °FChilly.2 mph93%30.07 "HgN/A
3:00 AM39 °FChilly.2 mph88%30.09 "HgN/A
2:00 AM40 °FChilly.2 mph87%30.11 "HgN/A
1:00 AM41 °FQuite cool.2 mph80%30.11 "HgN/A
12:00 AM42 °FQuite cool.3 mph77%30.11 "HgN/A
11:00 PM
Sep 17
42 °FQuite cool.2 mph81%30.12 "HgN/A
10:00 PM44 °FQuite cool.3 mph77%30.12 "HgN/A
9:00 PM46 °FCool.5 mph72%30.12 "HgN/A
8:00 PM47 °FCool.3 mph72%30.12 "HgN/A
7:00 PM47 °FCool.5 mph74%30.12 "HgN/A
6:00 PM48 °FCool.5 mph69%30.12 "HgN/A
5:00 PM48 °FCool.6 mph70%30.12 "HgN/A
4:00 PM49 °FCool.5 mph69%30.12 "HgN/A
3:00 PM50 °FCool.5 mph70%30.12 "HgN/A
2:00 PM48 °FCool.6 mph72%30.11 "HgN/A
1:00 PM49 °FCool.7 mph74%30.11 "HgN/A
12:00 PM46 °FCool.5 mph81%30.11 "HgN/A
11:00 AM44 °FQuite cool.6 mph83%30.10 "HgN/A
Weather by CustomWeather, © 2014

See weather overviewHow to use our weather pages